Hourly Weather Roundup
Issued by NWS Central Illinois

Home | Current Version | Previous Version | Text Only | Print | Product List | Glossary On
Versions: 1 2 3 4 5 6 7 8 9 10 11 12 13 14 15 16 17 18 19 20 21 22 23 24 25 26 27 28 29 30 31 32 33 34 35 36 37 38 39 40 41 42 43 44 45 46 47 48 49 50
000
NZUS43 KILX 171710
HWRILX

Area Weather Roundup
National Weather Service Lincoln IL
1200 PM CDT TUE OCT 17 2017

NOTE:  "FAIR" indicates few or no clouds below 12,000 feet, with
       no sigificant weather and/or obstructions to visibility.


CITY           SKY/WX    TMP DP  RH WIND       PRES   REMARKS
Bloomington    SUNNY     65  42  43 SW20G26   30.27F
Champaign      SUNNY     66  38  35 SW20G26   30.30F
Danville       SUNNY     64  38  37 SW15G22   30.28S
Decatur        SUNNY     64  40  41 SW16      30.30F
Effingham      SUNNY     64  40  40 S9G16     30.35F
Flora          SUNNY     64  42  43 SW9       30.35S
Galesburg      SUNNY     65  43  44 S16G22    30.23S
Jacksonville   SUNNY     66  39  37 SW18      30.28F
Lacon          SUNNY     64  44  48 S14       30.23S
Lawrenceville  SUNNY     63  41  44 S10       30.35F
Litchfield     MOSUNNY   63  40  42 SW13      30.32F
$$


CITY           SKY/WX    TMP DP  RH WIND       PRES   REMARKS
Lincoln        SUNNY     67  42  39 SW9       30.27F
Macomb         SUNNY     68  39  34 SW17      30.26S
Mattoon        SUNNY     62  40  44 SW13G21   30.33S
Mt Carmel AP   SUNNY     64  39  39 S10       30.34F
Olney-Noble AP SUNNY     64  34  32 SW8       30.35F
Paris AP       SUNNY     64  40  40 S16       30.33F
Peoria         SUNNY    N/A N/A N/A SW18G30   30.25F
Pontiac        SUNNY     67  42  40 SW16G24   30.25S
Rantoul        SUNNY     65  42  43 SW18      30.28F
Robinson       SUNNY     65  39  38 S9        30.35F
Springfield    SUNNY     65  41  41 SW10      30.29S
Taylorville    SUNNY     66  39  37 SW12G20   30.30F
$$

...REGIONAL REPORTS...


CITY           SKY/WX    TMP DP  RH WIND       PRES   REMARKS
Chicago O`Hare MOSUNNY   65  42  43 SW20G26   30.18F
Kankakee       SUNNY     66  40  38 SW21G26   30.26S
Moline         SUNNY     67  43  41 SW15G24   30.18F
Mount Sterling SUNNY     64  40  42 SW14G20   30.25F
Mount Vernon   SUNNY     62  41  46 S9        30.35F
Pittsfield     MOSUNNY   64  43  46 S15       30.28F
Quincy         SUNNY     65  41  41 S17       30.25F
Rockford       MOSUNNY   68  46  45 SW15      30.17F
$$


CITY           SKY/WX    TMP DP  RH WIND       PRES   REMARKS
Burlington     SUNNY     65  43  44 S17G24    30.21F
Cedar Rapids   SUNNY     67  42  40 SW15      30.14F
Des Moines     MOSUNNY   67  42  40 SW14      30.12F
Kirksville     SUNNY     65  45  48 SW14      30.23F
Ottumwa        SUNNY     67  44  43 S16G23    30.16F
St Louis       PTSUNNY   65  39  38 S10       30.32F
$$


CITY           SKY/WX    TMP DP  RH WIND       PRES   REMARKS
Terre Haute    SUNNY     63  38  39 SW10      30.34F
Evansville     SUNNY     63  40  42 S8        30.36F
Indianapolis   MOSUNNY   63  40  42 S14       30.33F
Lafayette      NOT AVBL
Madison        MOSUNNY   63  44  50 SW8       30.11S
Milwaukee      MOSUNNY   67  42  40 SW16G25   30.12S
$$





USA.gov is the U.S. government's official web portal to all federal, state and local government web resources and services.